We konden geen weer-waarchuwingen ophalen. Ga rechtstreeks naar de Meteoalarm site : www.meteoalarm.eu en controleer daar .



Onweer radar Meer informatie blitzortung!


Regen radar Meer informatie rain snow radar


Bezoek onze andere website:

Template documentation
and downloads

And another site



15 daagse weersverwachting Malmö (SE)

  • Overzicht
  • Per uur
  • 15 dagen
  • Extra
  • Vergelijk
  • Kaarten
  • Dagkaart
  • Meer »
  • Info
  • Statistieken
  • Directe link
    Temp 6h Neerslag Wind  
 05:49     20:36    Daglengte: 14:47 Morgen
02:00
20°
 
2
08:00
21°
 
3
14:00
28°
 
5
20:00
25°
 
5
 05:51     20:33    Daglengte: 14:42 Vrijdag 19 Aug
02:00
20°
 
2
08:00
20°
 
3
14:00
23°
13.9 mm
3
20:00
22°
40.0 mm
4
 05:52     20:31    Daglengte: 14:39 Zaterdag 20 Aug
02:00
20°
10.7 mm
3
08:00
19°
65.2 mm
4
14:00
20°
 
5
20:00
20°
 
3
Locatie info
Region: Skåne län
Latitude: 55.5967°N
Longitude: 13.0011°E
12 masl
Postcode: 211 43
Temp/Neerslag /Baro Onweer/Dauwpunt
    Temp Baro 1h Neerslag Dauwpunt Wind UV Bewolking  
 05:49     20:36    Daglengte: 14:47 Morgen
00:00
21°
1013.8 hPa   15.9°
2
Windvlaag: -0.1 m/s
76%
01:00
21°
1013.6 hPa   16.2°
2
Windvlaag: -0.3 m/s
71%
02:00
20°
1013.6 hPa   16.5°
2
Windvlaag: -0.4 m/s
66%
03:00
20°
1013.5 hPa   16.9°
2
Windvlaag: -0.1 m/s
65%
04:00
20°
1013.3 hPa   17.3°
2
Windvlaag: -0.1 m/s
73%
05:00
20°
1013.2 hPa   17.7°
2
Windvlaag: 0.1 m/s
75%
06:00
19°
1013.1 hPa   17.6°
2
Windvlaag: 1.4 m/s
67%
07:00
19°
1013.1 hPa   16.9°
2
Windvlaag: 2.5 m/s
45%
08:00
21°
1013.0 hPa   16.5°
3
Windvlaag: 2.9 m/s
45%
09:00
23°
1012.9 hPa   16.1°
3
Windvlaag: 3.7 m/s
40%
10:00
25°
1012.7 hPa   16.7°
4
Windvlaag: 4.5 m/s
38%
11:00
26°
1012.6 hPa   16.7°
4
Windvlaag: 3.7 m/s
19%
12:00
27°
1012.4 hPa   16.6°
5
Windvlaag: 4.8 m/s
17%
13:00
28°
1012.2 hPa   16.1°
5
Windvlaag: 5.8 m/s
11%
14:00
28°
1012.0 hPa   16.1°
5
Windvlaag: 6.5 m/s
23%
15:00
29°
Voelt als: 28.5°
1011.5 hPa
38%
14.7°
6
Windvlaag: 7.2 m/s
30%
16:00
29°
Voelt als: 28.4°
1011.4 hPa
39%
13.7°
6
Windvlaag: 7.7 m/s
11%
17:00
28°
Voelt als: 28.2°
1011.0 hPa
39%
14.3°
6
Windvlaag: 8.5 m/s
14%
18:00
27°
1011.1 hPa
58%
15.6°
6
Windvlaag: 8.8 m/s
18%
19:00
26°
1011.5 hPa
20%
19.2°
6
Windvlaag: 9.2 m/s
18%
20:00
25°
1011.4 hPa
15%
18.8°
5
Windvlaag: 7.3 m/s
36%
21:00
24°
1011.9 hPa
14%
18.7°
4
Windvlaag: 5.6 m/s
37%
22:00
22°
1012.0 hPa
14%
19.4°
3
Windvlaag: 6.3 m/s
34%
23:00
21°
1012.1 hPa
14%
18.7°
3
Windvlaag: 4.3 m/s
24%
 05:51     20:33    Daglengte: 14:42 Vrijdag 19 Aug
00:00
21°
1012.1 hPa
14%
18.3°
3
Windvlaag: 4.4 m/s
34%
01:00
20°
1012.2 hPa
14%
18.6°
2
Windvlaag: 2.8 m/s
36%
02:00
20°
1012.1 hPa
14%
18.3°
2
Windvlaag: 2.1 m/s
29%
03:00
20°
1011.9 hPa
14%
17.7°
2
Windvlaag: 0.8 m/s
26%
04:00
20°
1011.9 hPa
14%
17.0°
3
Windvlaag: 0.8 m/s
14%
05:00
19°
1011.8 hPa
14%
16.5°
3
Windvlaag: 1.3 m/s
12%
06:00
19°
1011.9 hPa
14%
16.3°
2
Windvlaag: 1.3 m/s
15%
07:00
20°
1012.3 hPa
14%
16.5°
3
Windvlaag: 1.7 m/s
21%
08:00
20°
1012.6 hPa
14%
16.5°
3
Windvlaag: 1 m/s
31%
09:00
20°
1012.8 hPa
14%
15.9°
2
Windvlaag: 0.8 m/s
25%
10:00
21°
1013.0 hPa
14%
15.2°
3
Windvlaag: -0.9 m/s
34%
11:00
22°
1013.3 hPa
26%
14.3°
3
Windvlaag: -4.3 m/s
40%
12:00
22°
1013.4 hPa 6.7 mm
78%
13.3°
3
Windvlaag: -4.5 m/s
81%
13:00
22°
1013.5 hPa
72%
13.5°
3
Windvlaag: -2.4 m/s
84%
14:00
23°
1013.4 hPa 7.2 mm
80%
13.4°
3
Windvlaag: -2.3 m/s
85%
15:00
23°
1013.4 hPa 6.7 mm
79%
13.4°
3
Windvlaag: -3.8 m/s
84%
16:00
23°
1013.3 hPa
36%
13.5°
3
Windvlaag: -2.4 m/s
62%
17:00
23°
1011.2 hPa 10.6 mm
37%
18.3°
3
Windvlaag: -1.2 m/s
92% warningclass
18:00
23°
1010.9 hPa
33%
17.6°
3
Windvlaag: -1.6 m/s
74%
19:00
22°
1011.3 hPa 12.0 mm
92%
16.1°
4
Windvlaag: -3.2 m/s
78% warningclass
20:00
22°
1011.1 hPa 10.7 mm
83%
15.9°
4
Windvlaag: -3.2 m/s
71%
21:00
21°
1011.2 hPa
27%
15.9°
4
Windvlaag: -2 m/s
73%
22:00
21°
1011.8 hPa
32%
15.2°
3
Windvlaag: -3.4 m/s
92%
23:00
21°
1011.7 hPa 10.7 mm
35%
14.5°
3
Windvlaag: -3.5 m/s
83%
 05:52     20:31    Daglengte: 14:39 Zaterdag 20 Aug
00:00
20°
1011.5 hPa
100%
14.5°
3
Windvlaag: -2.3 m/s
97%
01:00
20°
1011.4 hPa
96%
13.6°
3
Windvlaag: -2.4 m/s
97%
02:00
20°
1011.3 hPa
95%
13.0°
3
Windvlaag: -2.1 m/s
96%
03:00
20°
1011.3 hPa 10.9 mm
100%
10.9°
3
Windvlaag: -1.9 m/s
91%
04:00
20°
1010.9 hPa 10.7 mm
97%
9.1°
4
Windvlaag: -2.6 m/s
83%
05:00
19°
1010.8 hPa 10.7 mm
95%
8.1°
4
Windvlaag: -2.7 m/s
98%
06:00
19°
1011.2 hPa 11.0 mm
100%
6.8°
4
Windvlaag: -3.1 m/s
98%
07:00
19°
1011.5 hPa 11.2 mm
100%
5.8°
4
Windvlaag: -4.1 m/s
93%
08:00
19°
1011.2 hPa 10.7 mm
100%
5.3°
4
Windvlaag: -3.4 m/s
86%
09:00
20°
1011.3 hPa
90%
6.1°
4
Windvlaag: -3.1 m/s
87%
10:00
20°
1011.3 hPa
82%
9.1°
4
Windvlaag: -2.7 m/s
76%
11:00
20°
1011.8 hPa
82%
10.6°
4
Windvlaag: -2.7 m/s
81%
12:00
21°
1011.1 hPa
68%
11.8°
5
Windvlaag: 4.2 m/s
93%
13:00
21°
1011.6 hPa
80%
12.7°
5
Windvlaag: 4.3 m/s
99%
14:00
20°
1012.2 hPa
80%
14.6°
5
Windvlaag: 5.6 m/s
100%
15:00
21°
1012.3 hPa
80%
13.8°
5
Windvlaag: 5.5 m/s
100%
16:00
21°
1012.5 hPa
29%
12.7°
5
Windvlaag: 5.6 m/s
90%
17:00
21°
1012.7 hPa
21%
10.7°
5
Windvlaag: 5.6 m/s
84%
18:00
20°
1012.8 hPa
21%
8.3°
5
Windvlaag: 5.5 m/s
65%
19:00
20°
1012.9 hPa
21%
6.7°
4
Windvlaag: 5.5 m/s
17%
20:00
20°
1013.1 hPa
21%
7.5°
3
Windvlaag: 5.7 m/s
54%
21:00
21°
1013.3 hPa 31.7 mm
100%
9.7°
3
Windvlaag: 5.7 m/s
0%
22:00
20°
1013.1 hPa 31.7 mm
100%
10.2°
3
Windvlaag: 5.9 m/s
0%
23:00
20°
1013.1 hPa 31.7 mm
100%
10.4°
3
Windvlaag: 5.2 m/s
1%
Temp/Neerslag /Baro Onweer/Dauwpunt
    Temp Baro Neerslag Dauwpunt Wind Bewolking  
 05:49     20:36    Daglengte: 14:47 Morgen
02:00
20°
1013.6 hPa   16.5°
2
66%
05:00
20°
1013.2 hPa   17.7°
2
75%
08:00
21°
1013.0 hPa   16.5°
3
45%
11:00
26°
1012.6 hPa   16.7°
4
19%
14:00
28°
1012.0 hPa   16.1°
5
23%
17:00
28°
Voelt als: 28.2°
1011.0 hPa   14.3°
6
14%
20:00
25°
1011.4 hPa   18.8°
5
36%
23:00
21°
1012.1 hPa   18.7°
3
24%
 05:51     20:33    Daglengte: 14:42 Vrijdag 19 Aug
02:00
20°
1012.1 hPa   18.3°
2
29%
05:00
19°
1011.8 hPa   16.5°
3
12%
08:00
20°
1012.6 hPa   16.5°
3
31%
11:00
22°
1013.3 hPa   14.3°
3
40%
14:00
23°
1013.4 hPa 13.9 mm 13.4°
3
85%
17:00
23°
1011.2 hPa 17.3 mm 18.3°
3
92% warningclass
20:00
22°
1011.1 hPa 22.7 mm 15.9°
4
71%
23:00
21°
1011.7 hPa 10.7 mm 14.5°
3
83%
 05:52     20:31    Daglengte: 14:39 Zaterdag 20 Aug
02:00
20°
1011.3 hPa   13.0°
3
96%
05:00
19°
1010.8 hPa 32.3 mm 8.1°
4
98%
08:00
19°
1011.2 hPa 32.9 mm 5.3°
4
86%
11:00
20°
1011.8 hPa   10.6°
4
81%
14:00
20°
1012.2 hPa   14.6°
5
100%
17:00
21°
1012.7 hPa   10.7°
5
84%
20:00
20°
1013.1 hPa   7.5°
3
54%
23:00
20°
1013.1 hPa 95.0 mm 10.4°
3
1%
 05:54     20:29    Daglengte: 14:35 Zondag 21 Aug
02:00
19°
1013.0 hPa 95.0 mm 10.4°
4
0%
05:00
17°
1014.2 hPa 7.0 mm 13.8°
2
1%
08:00
18°
1015.1 hPa 7.0 mm 12.5°
2
0%
11:00
20°
1015.1 hPa 7.0 mm 10.6°
3
0%
14:00
21°
1014.7 hPa 7.0 mm 10.7°
4
0%
17:00
21°
1014.3 hPa 7.0 mm 13.2°
5
1%
20:00
20°
1014.3 hPa 7.0 mm 14.5°
2
1%
23:00
19°
1014.4 hPa 7.0 mm 13.1°
4
1%
 05:56     20:26    Daglengte: 14:30 Maandag 22 Aug
02:00
18°
1015.2 hPa 7.1 mm 13.0°
4
1%
05:00
17°
1016.1 hPa 7.1 mm 12.6°
6
1%
08:00
17°
1018.0 hPa 7.1 mm 10.4°
5
0%
11:00
19°
1018.8 hPa 7.1 mm 9.5°
4
0%
14:00
20°
1019.4 hPa 7.1 mm 9.4°
3
1%
17:00
20°
1019.5 hPa 7.1 mm 9.3°
4
1%
20:00
19°
1019.9 hPa 7.1 mm 8.8°
4
1%
23:00
16°
1020.3 hPa 7.1 mm 6.8°
3
1%
 05:58     20:24    Daglengte: 14:26 Dinsdag 23 Aug
02:00
14°
1021.0 hPa 7.1 mm 5.5°
3
1%
05:00
13°
1021.6 hPa 7.1 mm 4.6°
3
1%
08:00
15°
1022.0 hPa 7.1 mm 6.7°
3
1%
11:00
21°
1022.2 hPa 7.1 mm 6.3°
1
0%
14:00
21°
1022.4 hPa 7.1 mm 8.6°
3
0%
17:00
21°
1022.3 hPa 7.1 mm 11.1°
3
1%
20:00
19°
1022.5 hPa 7.1 mm 12.6°
3
0%
23:00
17°
1023.1 hPa 7.1 mm 11.5°
2
1%
 06:00     20:21    Daglengte: 14:21 Woensdag 24 Aug
02:00
16°
1022.9 hPa 7.1 mm 9.8°
3
1%
05:00
16°
1022.3 hPa 7.1 mm 10.1°
3
1%
08:00
18°
1022.7 hPa 7.1 mm 9.4°
3
1%
11:00
21°
1022.4 hPa 7.1 mm 8.9°
2
1%
14:00
23°
1021.4 hPa 7.1 mm 12.0°
2
1%
17:00
22°
1021.0 hPa 7.1 mm 12.4°
1
1%
20:00
21°
1021.1 hPa 7.1 mm 12.2°
1
1%
23:00
20°
1021.4 hPa   12.3°
2
1%
 06:02     20:19    Daglengte: 14:17 Donderdag 25 Aug
02:00
20°
1021.1 hPa 14.3 mm 14.4°
2
1%
08:00
19°
1021.3 hPa 14.3 mm 17.0°
3
1%
14:00
22°
1021.5 hPa 14.3 mm 18.4°
2
1%
20:00
21°
1021.5 hPa 14.3 mm 18.0°
0
0%
 06:04     20:16    Daglengte: 14:12 Vrijdag 26 Aug
02:00
18°
1021.8 hPa 14.4 mm 16.6°
4
0%
08:00
19°
1020.8 hPa 14.7 mm 16.3°
5
0%
14:00
28°
1019.3 hPa 14.7 mm 14.3°
5
0%
20:00
23°
1019.0 hPa 14.7 mm 12.9°
6
0%
 06:06     20:14    Daglengte: 14:08 Zaterdag 27 Aug
02:00
21°
1018.2 hPa 14.7 mm 15.0°
6
0%
08:00
21°
1018.3 hPa 15.0 mm 15.9°
6
1%
14:00
27°
Voelt als: 26.9°
1018.5 hPa 16.8 mm 12.6°
5
1%
20:00
20°
1022.0 hPa 0.1 mm 14.2°
2
46%
 06:08     20:11    Daglengte: 14:03 Zondag 28 Aug
02:00
17°
1022.3 hPa 0.1 mm 13.5°
3
36%
08:00
18°
1021.9 hPa 0.2 mm 14.0°
2
51%
14:00
22°
1021.8 hPa 0.2 mm 14.8°
1
56%
20:00
20°
1021.1 hPa 0.3 mm 14.3°
1
53%
 06:10     20:09    Daglengte: 13:59 Maandag 29 Aug
02:00
18°
1021.1 hPa 0.3 mm 13.7°
2
47%
08:00
18°
1020.5 hPa 0.3 mm 13.7°
2
46%
14:00
21°
1020.5 hPa 0.3 mm 14.3°
1
44%
20:00
19°
1019.9 hPa 0.7 mm 13.5°
1
28%
 06:12     20:06    Daglengte: 13:54 Dinsdag 30 Aug
02:00
17°
1020.1 hPa 0.5 mm 12.6°
0
29%
08:00
17°
1019.7 hPa 0.1 mm 12.9°
1
32%
14:00
21°
1019.8 hPa 0.1 mm 13.3°
0
38%
20:00
18°
1019.2 hPa 0.2 mm 12.8°
1
33%
 06:13     20:04    Daglengte: 13:51 Woensdag 31 Aug
02:00
16°
1019.2 hPa 0.5 mm 12.3°
1
41%
08:00
17°
1018.5 hPa 0.2 mm 12.8°
1
46%
14:00
21°
1017.8 hPa 0.5 mm 13.3°
1
42%
20:00
19°
1016.9 hPa 0.6 mm 13.1°
1
45%
 06:15     20:01    Daglengte: 13:46 Donderdag 01 Sep
02:00
17°
1016.9 hPa 0.2 mm 12.6°
1
43%
08:00
17°
1016.6 hPa 0.4 mm 12.3°
2
48%
14:00
20°
1016.5 hPa 0.3 mm 12.8°
2
49%
20:00
18°
1015.9 hPa 0.4 mm 12.5°
1
51%
  CAPE Lifted Index Hail Supercell Tornado SRH 3km CL BTM PRES CL TOP PRES Swiss DWD icon SMHI TS
 05:49     20:36    Daglengte: 14:47 Morgen
00:00 0 J/kg -1.0 K 0 % 0 % 0 % 0 m²/s² 0 0 0.5 3
01:00 0 J/kg -0.5 K 0 % 0 % 0 % 0 m²/s² 0 0 0.82 3
02:00 0 J/kg 0.2 K 0 % 0 % 0 % 0 m²/s² 0 0 1.64 3
03:00 28 J/kg 0.7 K 0 % 0 % 0 % 0 m²/s² 0 0 2.02 3
04:00 0 J/kg 0.0 K 0 % 0 % 0 % 0 m²/s² 0 0 1.11 3
05:00 0 J/kg -0.6 K 0 % 0 % 0 % 0 m²/s² 0 0 -0.15 3
06:00 0 J/kg 0.4 K 0 % 0 % 0 % 0 m²/s² 0 0 0.58 3
07:00 1 J/kg -0.2 K 0 % 0 % 0 % 0 m²/s² 0 0 0.19 3
08:00 7 J/kg -1.7 K 0 % 0 % 0 % 0 m²/s² 0 0 -1.16 3
09:00 333 J/kg -2.5 K 0 % 0 % 0 % 0 m²/s² 0 0 -1.69 3
10:00 460 J/kg -2.4 K 0 % 0 % 0 % 0 m²/s² 0 0 -1.08 3
11:00 584 J/kg -2.6 K 0 % 0 % 0 % 0 m²/s² 0 0 -0.68 1
12:00 886 J/kg -3.1 K 0 % 0 % 0 % 0 m²/s² 0 0 -0.85 1
13:00 1094 J/kg -3.4 K 0 % 0 % 0 % 0 m²/s² 0 0 -0.79 0
14:00 1153 J/kg -3.6 K 0 % 0 % 0 % 0 m²/s² 0 0 -1.05 3
15:00 1040 J/kg -3.2 K 0 % 0 % 0 % 0 m²/s² 0 0 -0.44 3
16:00 844 J/kg -2.7 K 0 % 0 % 0 % 0 m²/s² 0 0 0.24 2
17:00 814 J/kg -2.6 K 0 % 0 % 0 % 0 m²/s² 0 0 0.34 1
18:00 830 J/kg -3.1 K 0 % 0 % 0 % 0 m²/s² 0 0 -0.85 1
19:00 1154 J/kg -3.9 K 0 % 0 % 0 % 0 m²/s² 0 0 -3.42 2
20:00 0 J/kg -0.2 K 0 % 0 % 0 % 0 m²/s² 0 0 0.67 3
21:00 16 J/kg -0.4 K 0 % 0 % 0 % 0 m²/s² 0 0 0.17 3
22:00 229 J/kg -1.1 K 0 % 0 % 0 % 0 m²/s² 0 0 -1.1 3
23:00 75 J/kg -0.4 K 0 % 0 % 0 % 0 m²/s² 0 0 -0.4 3
 05:51     20:33    Daglengte: 14:42 Vrijdag 19 Aug
00:00 0 J/kg -1.0 K 0 % 0 % 0 % 0 m²/s² 0 0 -1 3
01:00 0 J/kg -1.5 K 0 % 0 % 0 % 0 m²/s² 0 0 -1.14 3
02:00 42 J/kg -1.4 K 0 % 0 % 0 % 0 m²/s² 0 0 -1.4 2
03:00 45 J/kg -0.1 K 0 % 0 % 0 % 0 m²/s² 0 0 0.2 3
04:00 8 J/kg -0.1 K 0 % 0 % 0 % 0 m²/s² 0 0 0.92 2
05:00 0 J/kg 0.0 K 0 % 0 % 0 % 0 m²/s² 0 0 0.3 1
06:00 0 J/kg -1.3 K 0 % 0 % 0 % 0 m²/s² 0 0 -0.82 3
07:00 61 J/kg -1.4 K 0 % 0 % 0 % 0 m²/s² 0 0 -1.4 3
08:00 131 J/kg -1.5 K 0 % 0 % 0 % 0 m²/s² 0 0 -1.11 3
09:00 177 J/kg -1.4 K 0 % 0 % 0 % 0 m²/s² 0 0 -0.8 2
10:00 312 J/kg -1.5 K 0 % 0 % 0 % 0 m²/s² 0 0 -1.47 3
11:00 156 J/kg -1.2 K 0 % 0 % 0 % 0 m²/s² 0 0 -1.08 3
12:00 156 J/kg -1.1 K 0 % 0 % 0 % 0 m²/s² 0 0 -0.98 80
13:00 150 J/kg -1.0 K 0 % 0 % 0 % 0 m²/s² 0 0 -0.61 3
14:00 187 J/kg -1.3 K 0 % 0 % 0 % 0 m²/s² 0 0 -0.52 80
15:00 280 J/kg -1.8 K 0 % 0 % 0 % 0 m²/s² 0 0 -0.84 80
16:00 444 J/kg -2.5 K 0 % 0 % 0 % 0 m²/s² 0 0 -1.03 3
17:00 657 J/kg -3.4 K 0 % 0 % 0 % 0 m²/s² 0 0 -2.11 3
18:00 514 J/kg -2.7 K 0 % 0 % 0 % 0 m²/s² 0 0 -1.68 2
19:00 326 J/kg -2.0 K 0 % 0 % 0 % 0 m²/s² 0 0 -1.28 96
20:00 162 J/kg -1.3 K 0 % 0 % 0 % 0 m²/s² 0 0 -0.43 3
21:00 73 J/kg -0.8 K 0 % 0 % 0 % 0 m²/s² 0 0 -0.02 3
22:00 0 J/kg 0.0 K 0 % 0 % 0 % 0 m²/s² 0 0 0.39 3
23:00 0 J/kg 1.1 K 0 % 0 % 0 % 0 m²/s² 0 0 1.55 3
 05:52     20:31    Daglengte: 14:39 Zaterdag 20 Aug
00:00 0 J/kg 1.6 K 0 % 0 % 0 % 0 m²/s² 0 0 2.38 3
01:00 0 J/kg 2.0 K 0 % 0 % 0 % 0 m²/s² 0 0 2.72 3
02:00 0 J/kg 3.1 K 0 % 0 % 0 % 0 m²/s² 0 0 4.21 3
03:00 0 J/kg 3.6 K 0 % 0 % 0 % 0 m²/s² 0 0 5.04 80
04:00 0 J/kg 5.6 K 0 % 0 % 0 % 0 m²/s² 0 0 7.22 80
05:00 0 J/kg 6.7 K 0 % 0 % 0 % 0 m²/s² 0 0 8.2 3
06:00 0 J/kg 7.1 K 0 % 0 % 0 % 0 m²/s² 0 0 8.6 80
07:00 0 J/kg 7.2 K 0 % 0 % 0 % 0 m²/s² 0 0 8.85 61
08:00 0 J/kg 6.9 K 0 % 0 % 0 % 0 m²/s² 0 0 9.45 61
09:00 0 J/kg 6.9 K 0 % 0 % 0 % 0 m²/s² 0 0 10.44 3
10:00 0 J/kg 5.8 K 0 % 0 % 0 % 0 m²/s² 0 0 9.73 3
11:00 0 J/kg 4.2 K 0 % 0 % 0 % 0 m²/s² 0 0 7.83 3
12:00 0 J/kg 2.9 K 0 % 0 % 0 % 0 m²/s² 0 0 5.15 3
13:00 3 J/kg 1.0 K 0 % 0 % 0 % 0 m²/s² 0 0 2.05 3
14:00 212 J/kg -1.0 K 0 % 0 % 0 % 0 m²/s² 0 0 -0.04 3
15:00 99 J/kg -0.4 K 0 % 0 % 0 % 0 m²/s² 0 0 1.07 3
16:00 9 J/kg 1.1 K 0 % 0 % 0 % 0 m²/s² 0 0 3.2 3
17:00 0 J/kg 3.3 K 0 % 0 % 0 % 0 m²/s² 0 0 6.3 3
18:00 0 J/kg 5.4 K 0 % 0 % 0 % 0 m²/s² 0 0 12.48 3
19:00 0 J/kg 6.8 K 0 % 0 % 0 % 0 m²/s² 0 0 14.63 2
20:00 0 J/kg 6.3 K 0 % 0 % 0 % 0 m²/s² 0 0 11.91 3
21:00 0 J/kg 5.6 K 0 % 0 % 0 % 0 m²/s² 0 0 10.91
22:00 0 J/kg 5.6 K 0 % 0 % 0 % 0 m²/s² 0 0 10.79
23:00 0 J/kg 5.4 K 0 % 0 % 0 % 0 m²/s² 0 0 11.16
Temp Baro Wind Neerslag
  EWN Forecast EWN WRFDA DWD ICON FMI HIRLAM MET Norway GFS
 05:49     20:36    Daglengte: 14:47 Morgen
02:00 20.2° 1013.6 hPa 1.8 m/s 0.0 mm 19.4° 1012.8 hPa 2.1 m/s 0.0 mm 20.2° 1013.7 hPa 1.7 m/s -2.0 mm 20.1° 1013.7 hPa 1.8 m/s 0.0 mm 19.9° 1012.6 hPa 2.0 m/s
05:00 19.5° 1013.2 hPa 1.9 m/s 0.0 mm 17.9° 1012.3 hPa 2.7 m/s 0.0 mm 19.6° 1013.5 hPa 1.1 m/s 0.0 mm 18.4° 1013.3 hPa 2.2 m/s 0.0 mm 19.3° 1012.2 hPa 2.4 m/s
08:00 21.1° 1013.0 hPa 3.0 m/s 0.0 mm 21.6° 1012.5 hPa 2.8 m/s 0.0 mm 20.4° 1013.8 hPa 1.3 m/s 0.0 mm 21.0° 1012.8 hPa 3.7 m/s 0.0 mm 20.4° 1012.9 hPa 3.0 m/s
11:00 25.7° 1012.6 hPa 4.3 m/s 0.0 mm 28.1° 1011.5 hPa 5.0 m/s 0.0 mm 25.6° 1013.1 hPa 1.9 m/s 0.0 mm 26.6° 1012.7 hPa 6.5 m/s 0.0 mm 23.6° 1012.5 hPa 3.7 m/s
14:00 28.2° 1012.0 hPa 5.3 m/s 0.0 mm 29.4° 1010.8 hPa 6.8 m/s 0.0 mm 28.0° 1012.6 hPa 1.6 m/s 0.0 mm 28.6° 1012.1 hPa 7.9 m/s 0.0 mm 25.8° 1011.8 hPa 4.9 m/s
17:00 28.4° 1011.0 hPa 6.5 m/s 0.0 mm 29.6° 1010.0 hPa 5.2 m/s 0.0 mm 27.9° 1011.7 hPa 2.7 m/s 0.1 mm 28.5° 1011.1 hPa 8.3 m/s 0.0 mm 24.7° 1011.4 hPa 4.6 m/s
20:00 25.0° 1011.4 hPa 5.3 m/s 0.0 mm 24.1° 1011.2 hPa 5.6 m/s 0.8 mm 25.2° 1011.7 hPa 3.5 m/s 0.0 mm 23.8° 1011.6 hPa 5.7 m/s 0.0 mm 21.6° 1012.1 hPa 5.6 m/s
23:00 21.4° 1012.1 hPa 2.6 m/s 0.0 mm 21.2° 1012.2 hPa 1.8 m/s 5.6 mm 21.1° 1012.1 hPa 1.5 m/s 0.0 mm 21.1° 1013.2 hPa 2.7 m/s 0.0 mm 20.2° 1012.4 hPa 1.9 m/s
 05:51     20:33    Daglengte: 14:42 Vrijdag 19 Aug
02:00 20.0° 1012.1 hPa 2.5 m/s 0.0 mm 19.9° 1011.9 hPa 2.6 m/s 47.6 mm 19.7° 1011.8 hPa 2.2 m/s 0.0 mm 19.3° 1013.9 hPa 4.8 m/s 0.0 mm 19.4° 1012.8 hPa 2.6 m/s
05:00 19.5° 1011.8 hPa 2.6 m/s 0.0 mm 19.4° 1010.1 hPa 2.1 m/s 93.9 mm 19.5° 1011.2 hPa 2.2 m/s 0.0 mm 18.1° 1014.5 hPa 5.6 m/s 0.0 mm 18.6° 1012.3 hPa 4.1 m/s
08:00 20.1° 1012.6 hPa 2.6 m/s 0.0 mm 20.1° 1009.8 hPa 0.5 m/s 94.3 mm 21.1° 1011.9 hPa 1.1 m/s 0.0 mm 18.1° 1015.2 hPa 5.0 m/s 0.0 mm 19.3° 1013.2 hPa 3.7 m/s
11:00 21.7° 1013.3 hPa 2.7 m/s 0.0 mm 22.2° 1009.9 hPa 2.1 m/s 94.9 mm 25.5° 1011.5 hPa 1.8 m/s 0.0 mm 21.1° 1016.1 hPa 4.0 m/s 0.0 mm 21.8° 1013.4 hPa 3.4 m/s
14:00 22.6° 1013.4 hPa 2.7 m/s 13.9 mm 24.5° 1010.3 hPa 2.3 m/s 94.9 mm 25.4° 1011.3 hPa 0.9 m/s 1.0 mm 22.2° 1015.9 hPa 5.4 m/s 0.0 mm 21.8° 1013.1 hPa 4.5 m/s
17:00 23.3° 1011.2 hPa 2.9 m/s 17.3 mm 24.1° 1010.5 hPa 3.8 m/s 95.0 mm 23.8° 1010.7 hPa 3.1 m/s 0.3 mm 19.2° 1012.9 hPa 2.3 m/s
20:00 21.5° 1011.1 hPa 3.6 m/s 22.7 mm 23.3° 1010.7 hPa 4.4 m/s 95.0 mm 21.6° 1010.4 hPa 3.7 m/s 2.4 mm 18.9° 1012.5 hPa 3.7 m/s
23:00 20.6° 1011.7 hPa 2.8 m/s 10.7 mm 21.8° 1011.8 hPa 3.4 m/s 95.0 mm 20.6° 1009.6 hPa 2.7 m/s 0.0 mm 18.4° 1012.6 hPa 2.9 m/s
 05:52     20:31    Daglengte: 14:39 Zaterdag 20 Aug
02:00 19.6° 1011.3 hPa 2.8 m/s 0.0 mm 19.7° 1011.5 hPa 1.9 m/s 95.0 mm 19.9° 1009.2 hPa 3.9 m/s 0.0 mm 18.4° 1012.0 hPa 2.8 m/s
05:00 19.3° 1010.8 hPa 3.8 m/s 32.3 mm 19.5° 1011.1 hPa 2.6 m/s 95.0 mm 19.5° 1008.7 hPa 4.8 m/s 0.9 mm 17.9° 1011.5 hPa 3.3 m/s
08:00 19.3° 1011.2 hPa 4.0 m/s 32.9 mm 19.5° 1011.4 hPa 2.5 m/s 95.0 mm 19.5° 1009.6 hPa 4.2 m/s 1.9 mm 19.1° 1012.1 hPa 2.7 m/s
11:00 20.5° 1011.8 hPa 3.5 m/s 0.0 mm 21.9° 1011.9 hPa 2.0 m/s 95.0 mm 20.4° 1010.8 hPa 4.2 m/s 0.1 mm 20.5° 1012.3 hPa 3.5 m/s
14:00 20.4° 1012.2 hPa 5.4 m/s 0.0 mm 22.5° 1012.1 hPa 5.6 m/s 95.0 mm 19.9° 1012.2 hPa 5.4 m/s 0.0 mm 22.6° 1012.3 hPa 2.5 m/s
17:00 20.5° 1012.7 hPa 4.8 m/s 0.0 mm 22.7° 1012.4 hPa 5.4 m/s 95.0 mm 20.0° 1012.8 hPa 4.7 m/s 0.0 mm 22.7° 1012.1 hPa 3.4 m/s
20:00 19.8° 1013.1 hPa 2.5 m/s 0.0 mm 21.4° 1012.9 hPa 3.9 m/s 95.0 mm 19.4° 1013.2 hPa 2.2 m/s 0.0 mm 20.8° 1013.0 hPa 3.9 m/s
23:00 19.9° 1013.1 hPa 2.8 m/s 95.0 mm 19.9° 1013.1 hPa 2.8 m/s 95.0 mm 18.8° 1013.5 hPa 3.3 m/s
 05:54     20:29    Daglengte: 14:35 Zondag 21 Aug
02:00 18.8° 1013.0 hPa 3.6 m/s 95.0 mm 18.8° 1013.0 hPa 3.6 m/s 95.0 mm 17.7° 1014.2 hPa 2.9 m/s
05:00 16.6° 1014.2 hPa 2.1 m/s 7.0 mm 16.6° 1014.2 hPa 2.1 m/s 7.0 mm
08:00 18.0° 1015.1 hPa 1.7 m/s 7.0 mm 18.0° 1015.1 hPa 1.7 m/s 7.0 mm
11:00 19.5° 1015.1 hPa 3.0 m/s 7.0 mm 19.5° 1015.1 hPa 3.0 m/s 7.0 mm
14:00 20.9° 1014.7 hPa 3.9 m/s 7.0 mm 20.9° 1014.7 hPa 3.9 m/s 7.0 mm
17:00 20.9° 1014.3 hPa 5.3 m/s 7.0 mm 20.9° 1014.3 hPa 5.3 m/s 7.0 mm
20:00 19.8° 1014.3 hPa 2.3 m/s 7.0 mm 19.8° 1014.3 hPa 2.3 m/s 7.0 mm
23:00 19.3° 1014.4 hPa 3.7 m/s 7.0 mm 19.3° 1014.4 hPa 3.7 m/s 7.0 mm
 05:56     20:26    Daglengte: 14:30 Maandag 22 Aug
02:00 17.8° 1015.2 hPa 4.2 m/s 7.1 mm 17.8° 1015.2 hPa 4.2 m/s 7.1 mm
05:00 17.0° 1016.1 hPa 5.9 m/s 7.1 mm 17.0° 1016.1 hPa 5.9 m/s 7.1 mm
08:00 17.2° 1018.0 hPa 5.0 m/s 7.1 mm 17.2° 1018.0 hPa 5.0 m/s 7.1 mm
11:00 18.6° 1018.8 hPa 4.3 m/s 7.1 mm 18.6° 1018.8 hPa 4.3 m/s 7.1 mm
14:00 20.1° 1019.4 hPa 3.5 m/s 7.1 mm 20.1° 1019.4 hPa 3.5 m/s 7.1 mm
17:00 20.4° 1019.5 hPa 4.1 m/s 7.1 mm 20.4° 1019.5 hPa 4.1 m/s 7.1 mm
20:00 18.5° 1019.9 hPa 3.8 m/s 7.1 mm 18.5° 1019.9 hPa 3.8 m/s 7.1 mm
23:00 16.1° 1020.3 hPa 3.0 m/s 7.1 mm 16.1° 1020.3 hPa 3.0 m/s 7.1 mm
 05:58     20:24    Daglengte: 14:26 Dinsdag 23 Aug
02:00 14.4° 1021.0 hPa 2.9 m/s 7.1 mm 14.4° 1021.0 hPa 2.9 m/s 7.1 mm
05:00 13.1° 1021.6 hPa 3.1 m/s 7.1 mm 13.1° 1021.6 hPa 3.1 m/s 7.1 mm
08:00 15.4° 1022.0 hPa 3.0 m/s 7.1 mm 15.4° 1022.0 hPa 3.0 m/s 7.1 mm
11:00 20.9° 1022.2 hPa 0.9 m/s 7.1 mm 20.9° 1022.2 hPa 0.9 m/s 7.1 mm
14:00 21.4° 1022.4 hPa 3.4 m/s 7.1 mm 21.4° 1022.4 hPa 3.4 m/s 7.1 mm
17:00 21.3° 1022.3 hPa 3.5 m/s 7.1 mm 21.3° 1022.3 hPa 3.5 m/s 7.1 mm
20:00 19.0° 1022.5 hPa 3.2 m/s 7.1 mm 19.0° 1022.5 hPa 3.2 m/s 7.1 mm
23:00 16.7° 1023.1 hPa 2.4 m/s 7.1 mm 16.7° 1023.1 hPa 2.4 m/s 7.1 mm
 06:00     20:21    Daglengte: 14:21 Woensdag 24 Aug
02:00 16.0° 1022.9 hPa 3.2 m/s 7.1 mm 16.0° 1022.9 hPa 3.2 m/s 7.1 mm
05:00 16.1° 1022.3 hPa 3.1 m/s 7.1 mm 16.1° 1022.3 hPa 3.1 m/s 7.1 mm
08:00 18.0° 1022.7 hPa 3.1 m/s 7.1 mm 18.0° 1022.7 hPa 3.1 m/s 7.1 mm
11:00 21.0° 1022.4 hPa 2.5 m/s 7.1 mm 21.0° 1022.4 hPa 2.5 m/s 7.1 mm
14:00 22.9° 1021.4 hPa 1.6 m/s 7.1 mm 22.9° 1021.4 hPa 1.6 m/s 7.1 mm
17:00 22.4° 1021.0 hPa 0.7 m/s 7.1 mm 22.4° 1021.0 hPa 0.7 m/s 7.1 mm
20:00 21.0° 1021.1 hPa 1.1 m/s 7.1 mm 21.0° 1021.1 hPa 1.1 m/s 7.1 mm
23:00 20.0° 1021.4 hPa 2.5 m/s 7.1 mm 20.0° 1021.4 hPa 2.5 m/s 7.1 mm
 06:02     20:19    Daglengte: 14:17 Donderdag 25 Aug
02:00 19.5° 1021.1 hPa 2.5 m/s 7.1 mm 19.5° 1021.1 hPa 2.5 m/s 7.1 mm
08:00 19.2° 1021.3 hPa 2.9 m/s 7.1 mm 19.2° 1021.3 hPa 2.9 m/s 7.1 mm
14:00 22.2° 1021.5 hPa 1.7 m/s 7.1 mm 22.2° 1021.5 hPa 1.7 m/s 7.1 mm
20:00 21.3° 1021.5 hPa 0.1 m/s 7.1 mm 21.3° 1021.5 hPa 0.1 m/s 7.1 mm
 06:04     20:16    Daglengte: 14:12 Vrijdag 26 Aug
02:00 18.0° 1021.8 hPa 3.8 m/s 7.3 mm 18.0° 1021.8 hPa 3.8 m/s 7.3 mm
08:00 19.4° 1020.8 hPa 4.7 m/s 7.3 mm 19.4° 1020.8 hPa 4.7 m/s 7.3 mm
14:00 27.7° 1019.3 hPa 4.7 m/s 7.3 mm 27.7° 1019.3 hPa 4.7 m/s 7.3 mm
20:00 22.6° 1019.0 hPa 5.7 m/s 7.3 mm 22.6° 1019.0 hPa 5.7 m/s 7.3 mm
 06:06     20:14    Daglengte: 14:08 Zaterdag 27 Aug
02:00 20.6° 1018.2 hPa 5.8 m/s 7.3 mm 20.6° 1018.2 hPa 5.8 m/s 7.3 mm
08:00 20.6° 1018.3 hPa 6.0 m/s 7.7 mm 20.6° 1018.3 hPa 6.0 m/s 7.7 mm
14:00 27.0° 1018.5 hPa 5.1 m/s 8.4 mm 27.0° 1018.5 hPa 5.1 m/s 8.4 mm
20:00 19.8° 1022.0 hPa 1.6 m/s 0.1 mm
 06:08     20:11    Daglengte: 14:03 Zondag 28 Aug
02:00 17.3° 1022.3 hPa 2.7 m/s 0.1 mm
08:00 17.9° 1021.9 hPa 2.4 m/s 0.2 mm
14:00 22.1° 1021.8 hPa 1.3 m/s 0.2 mm
20:00 19.9° 1021.1 hPa 1.3 m/s 0.3 mm
 06:10     20:09    Daglengte: 13:59 Maandag 29 Aug
02:00 17.5° 1021.1 hPa 1.9 m/s 0.3 mm
08:00 17.6° 1020.5 hPa 1.6 m/s 0.3 mm
14:00 21.5° 1020.5 hPa 0.6 m/s 0.3 mm
20:00 19.2° 1019.9 hPa 0.5 m/s 0.7 mm
 06:12     20:06    Daglengte: 13:54 Dinsdag 30 Aug
02:00 16.8° 1020.1 hPa 0.3 m/s 0.5 mm
08:00 16.9° 1019.7 hPa 0.7 m/s 0.1 mm
14:00 21.0° 1019.8 hPa 0.2 m/s 0.1 mm
20:00 18.5° 1019.2 hPa 0.6 m/s 0.2 mm
 06:13     20:04    Daglengte: 13:51 Woensdag 31 Aug
02:00 16.5° 1019.2 hPa 1.1 m/s 0.5 mm
08:00 16.8° 1018.5 hPa 1.2 m/s 0.2 mm
14:00 20.8° 1017.8 hPa 0.5 m/s 0.5 mm
20:00 18.8° 1016.9 hPa 0.5 m/s 0.6 mm
 06:15     20:01    Daglengte: 13:46 Donderdag 01 Sep
02:00 16.6° 1016.9 hPa 1.2 m/s 0.2 mm
08:00 16.5° 1016.6 hPa 1.7 m/s 0.4 mm
14:00 20.2° 1016.5 hPa 1.7 m/s 0.3 mm
20:00 17.9° 1015.9 hPa 1.1 m/s 0.4 mm
FMI Hirlam - 7.5 km EWN WRFDA - 12 km DWD ICON - 7 km GFS - 25 km Basiskaart






























































Updatetijd (Europe/Amsterdam) Resolutie Lengte Stap
FMI Hirlam 19:15, 01:15, 07:15, 13:15 7.5 km 49h 1h
EWN WRFDA 22:30, 04:30, 10:30, 16:30 12 km 73h 1h
DWD ICON 23:45, 05:45, 11:45, 17:45 7 km 75h 1h
GFS 20:00, 02:00, 08:00, 14:00 25 km 237h 3h
30+ mm
25-30 mm
20-25 mm
15-20 mm
10-15 mm
6-10 mm
4-6 mm
2-4 mm
1-2 mm
0.5-1 mm
0.2-0.5 mm
0.1-0.2 mm
30+ mm
25-30 mm
20-25 mm
15-20 mm
10-15 mm
6-10 mm
4-6 mm
2-4 mm
1-2 mm
0.5-1 mm
0.2-0.5 mm
0.1-0.2 mm
Sneeuwval
Natte sneeuw
Hagel
Vorst
30+ mm
25-30 mm
20-25 mm
15-20 mm
10-15 mm
6-10 mm
4-6 mm
2-4 mm
1-2 mm
0.5-1 mm
0.2-0.5 mm
0.1-0.2 mm
Sneeuwval
Natte sneeuw
Hagel
Vorst
Onweer
50 mm
40 mm
30 mm
26 mm
22 mm
18 mm
14 mm
10 mm
9 mm
8 mm
7 mm
6 mm
5 mm
4.5 mm
4 mm
3.5 mm
3 mm
2.5 mm
2 mm
1.5 mm
1 mm
0.8 mm
0.6 mm
0.4 mm
0.2 mm
0.05 mm
35°
30°
25°
20°
15°
10°
-5°
-10°
-15°
-20°
-25°
-30°
-35°
33> m/s
29 m/s
25 m/s
21 m/s
17 m/s
14 m/s
11 m/s
8 m/s
5 m/s
3 m/s
0 m/s
2600 J/kg
2400 J/kg
2200 J/kg
2000 J/kg
1800 J/kg
1600 J/kg
1400 J/kg
1200 J/kg
1000 J/kg
800 J/kg
600 J/kg
400 J/kg
200 J/kg
70 dBZ
65 dBZ
60 dBZ
55 dBZ
50 dBZ
45 dBZ
40 dBZ
35 dBZ
30 dBZ
25 dBZ
20 dBZ
15 dBZ
10 dBZ
5 dBZ
-1 K
-2 K
-3 K
-4 K
-5 K
-6 K
-7 K
-8 K
-9 K
950 m²/s²
900 m²/s²
850 m²/s²
800 m²/s²
750 m²/s²
700 m²/s²
650 m²/s²
600 m²/s²
550 m²/s²
500 m²/s²
450 m²/s²
400 m²/s²
350 m²/s²
300 m²/s²
250 m²/s²
200 m²/s²
150 m²/s²
100 m²/s²
46 m/s
44 m/s
42 m/s
40 m/s
38 m/s
36 m/s
34 m/s
32 m/s
30 m/s
28 m/s
26 m/s
24 m/s
22 m/s
20 m/s
16 m/s
12 m/s
8 m/s
4 m/s
30 m/s
28 m/s
26 m/s
24 m/s
22 m/s
20 m/s
18 m/s
16 m/s
14 m/s
12 m/s
10 m/s
8 m/s
6 m/s
4 m/s
2 m/s
3.0
2.8
2.6
2.4
2.2
2.0
1.8
1.6
1.4
1.2
1.0
0.8
0.6
0.4
0.2
15
14
13
12
11
10
9
8
7
6
5
4
3
2
1
90%
80%
70%
60%
50%
40%
30%
20%
10%
42
40
38
36
34
32
30
28
26
24
22
20
18
16
14
12
90+ cm
80-90 cm
70-80 cm
60-70 cm
50-60 cm
40-50 cm
30-40 cm
20-30 cm
10-20 cm
1-10 cm
Sneeuwval
Natte sneeuw
Regen
>120 mm
115 mm
110 mm
105 mm
100 mm
95 mm
90 mm
85 mm
80 mm
75 mm
70 mm
65 mm
60 mm
55 mm
50 mm
45 mm
45 mm
40 mm
35 mm
30 mm
25 mm
20 mm
15 mm
10 mm
5 mm
0.1 mm
960 hPa
880 hPa
800 hPa
720 hPa
640 hPa
560 hPa
584 gpdm
568 gpdm
552 gpdm
536 gpdm
520 gpdm
504 gpdm
488 gpdm
Extreem zwaar Noodweer Kans op onweer
15% 15% 5% 50% 15%

Dag




Kaart






35°
30°
25°
20°
15°
10°
-5°
-10°
-15°